Погода в Пречистом

Россия / Смоленская область     55°30′31″N   32°21′44″E
темп.,
°C
ветер,
м/с
пор.,
м/с
влажн.,
%
обл.,
%
осадки,
мм/ч
давл.,
гПа
погр.,
м
24 января, пн
пн2400:00−18зсз0010096 0.0 10369
03:00−18ююз1110097 0.0 10379
06:00−19зюз11100100 0.0 10379
09:00−19ююз11100100 0.0 103810
12:00−10юз239465 0.0 1037137
15:00−7ююз25915 0.0 1035230
18:00−13ююз249973 0.0 103457
21:00−14ююз289762 0.0 1033115
25 января, вт
вт2500:00−14ююз3109753 0.0 1031162
03:00−13ююз3129499 0.0 1029223
06:00−12ююз41391100 0.0 1026285
09:00−10ююз41389100 0.0 1023303
12:00−7ююз41194100 0.2 1020325
15:00−5ююз4995100 0.6 1017351
18:00−5юз3796100 1.3 1016304
21:00−5з289799 2.4 1016291
26 января, ср
ср2600:00−4ссз3119375 0.1 1017496
03:00−5ссз4891100 0.1 1018637
06:00−7ссз499299 0.1 1020594
09:00−14ссз2710094 0.1 1022108
12:00−10ссз25925 0.0 1022186
15:00−8ссз24885 0.0 1022217
18:00−15з1199100 0.0 10229
21:00−15ююз1199100 0.0 102120
27 января, чт
чт2700:00−12ю2695100 0.0 1019116
03:00−11ю3990100 0.0 1017210
06:00−12ю41288100 0.0 1015260
09:00−10ююв41287100 0.0 1013334
12:00−8ю41393100 0.2 1011456
15:00−6ю4109399 0.4 1009427
18:00−7ю41094100 0.2 1008315
21:00−6ю41095100 0.3 1006294
28 января, пт
пт2800:00−5ю41295100 0.1 1004485
03:00−4ю51495100 0.1 1001558
06:00−3ю51395100 0.9 998653
09:00−2ю41196100 2.1 997490
12:000ююз3796100 0.8 996612
15:000ююз3899100 1.1 995538
18:00−1ююв2798100 0.3 995363
21:00−1юв2598100 0.9 996198